Tracking 30261 objects as of 18-Feb-2025
HD Live streaming from Space Station
objects crossing your sky now

STARLINK-5231

Track STARLINK-5231 now!
10-day predictions
STARLINK-5231 is classified as:


NORAD ID: 54182
Int'l Code: 2022-141AB
Perigee: 546.0 km
Apogee: 547.8 km
Inclination: 53.2 °
Period: 95.4 minutes
Semi major axis: 6917 km
RCS: Unknown
Launch date: October 28, 2022
Source: United States (US)
Launch site: AIR FORCE WESTERN TEST RANGE (AFWTR)
Your satellite tracking list
Your tracking list is empty




NASA's NSSDC Master Catalog

Two Line Element Set (TLE):
1 54182U 22141AB  25048.89708941  .00000619  00000-0  56998-4 0  9992
2 54182  53.2167 261.1558 0001346  89.4690 270.6456 15.08838248128192
Source of the keplerian elements: AFSPC